sat.trackr.live / text

‹ back to catalog

UNKNOWN

NORAD 89493

UNKNOWN UNKNOWN UNKNOWN

§ Identity

Operator
Country
Launch date
Launch site
Launch vehicle
Mass (kg)
RCS (m²)

External: N2YO · Heavens-Above

§ Orbital elements

Epoch: 2026-09-15T10:38:24.477504Z

Period
101.58 min
Inclination
99.0125°
Eccentricity
0.0078560
Mean motion
14.17592250 rev/d
Perigee alt
776.9 km
Apogee alt
890.2 km
Semi-major
7,211.6 km
B*
7.5051e-4
RAAN
336.1404°
Arg perigee
334.2172°
Mean anomaly
25.5096°
Rev number
50,313

§ Raw data

UNKNOWN1 89493U          26258.44333886  .00001526  00000+0  75051-3 0  99992 89493  99.0125 336.1404 0078560 334.2172  25.5096 14.17592250503135

JSON: /api/v1/satellites/89493 · /tle

For live sub-satellite position, see the globe view (requires WebGL).

§ Visibility from observer

Set your observer location to see the next 7 days of passes ≥ 10°. The values pass through the URL so the page stays shareable.

No JS? Fill the form by hand. The geolocation button needs JavaScript.